{"data":{"norad_id":43764,"epoch":"2026-08-03T16:03:46.633536Z","epoch_age_seconds":4187386,"freshness":"OLD","line1":"1 43764U 18099G   26215.66928974  .08710049  25424-5  82859-3 0  9994","line2":"2 43764  97.4052 303.9833 0014823 268.5632  91.3968 16.38230059422496","mean_motion":16.38230059,"eccentricity":0.0014823,"inclination_deg":97.4052,"raan_deg":303.9833,"arg_perigee_deg":268.5632,"mean_anomaly_deg":91.3968,"bstar":0.00082859,"rev_number":42249,"period_min":87.899742291324,"perigee_km":160.80796516479,"apogee_km":180.22209897907,"semimajor_km":6548.6520320719,"source":"CELESTRAK","updated_at":"2026-08-04T09:00:32.207616Z"}}